Jefferson, NC

10:31 PM EST on December 11, 2019 (GMT -0500)
Ashe County

Weather History for KGEV - October, 2019

Change the Weather History Date:

Saturday, October 19, 2019

  Actual Average Record
Temperature  
Mean Temperature 44 °F -  
Max Temperature 54 °F 62 °F 77 °F (1984)
Min Temperature 35 °F 37 °F 23 °F (1976)
Degree Days  
Heating Degree Days 20    
Moisture  
Dew Point 40 °F    
Average Humidity 86    
Maximum Humidity 100    
Minimum Humidity 57    
Precipitation  
Precipitation 0.48 in - - ()
Sea Level Pressure  
Sea Level Pressure 30.04 in    
Wind  
Wind Speed 1 mph ()    
Max Wind Speed 7 mph    
Max Gust Speed -    
Visibility 8.9 miles    
Events Rain    
Averages and records for this station are not official NWS values.
T = Trace of Precipitation, MM = Missing Value Source: Averaged Metar Reports

Daily Weather History Graph

Daily Weather History Graph

Search for Another Location

Airport or City:

Astronomy

Oct. 19, 2019 Rise Set
Actual Time 7:36 AM EDT 6:44 PM EDT
Civil Twilight 7:10 AM EDT 7:10 PM EDT
Nautical Twilight 6:40 AM EDT 7:40 PM EDT
Astronomical Twilight 6:10 AM EDT 8:10 PM EDT
Moon 10:59 PM EDT (10/19) 1:00 PM EDT (10/19)
Length of Visible Light 12h 00m
Length of Day
11h 08m
Waning Gibbous, 70% of the Moon is Illuminated
Oct 19
Waning Gibbous
Oct 21
Last Quarter
Oct 27
New
Nov 4
First Quarter
Nov 12
Full

Hourly Weather History & Observations

Time (EDT) Temp. Windchill Dew Point Humidity Pressure Visibility Wind Dir Wind Speed Gust Speed Precip Events Conditions
12:15 AM 43.3 °F - 38.8 °F 84% 30.05 in 10.0 mi Calm Calm - N/A   Clear
12:35 AM 43.2 °F - 39.0 °F 85% 30.05 in 10.0 mi Calm Calm - N/A   Clear
12:55 AM 41.4 °F - 38.8 °F 91% 30.05 in 10.0 mi Calm Calm - N/A   Clear
1:15 AM 40.8 °F - 38.8 °F 93% 30.06 in 10.0 mi Calm Calm - N/A   Clear
1:35 AM 41.4 °F - 38.8 °F 91% 30.06 in 10.0 mi Calm Calm - N/A   Clear
1:55 AM 39.6 °F - 38.1 °F 95% 30.06 in 10.0 mi Calm Calm - N/A   Clear
2:15 AM 40.8 °F - 38.5 °F 91% 30.07 in 10.0 mi Calm Calm - N/A   Clear
2:35 AM 39.7 °F - 38.1 °F 94% 30.07 in 10.0 mi Calm Calm - N/A   Clear
2:55 AM 39.4 °F - 37.8 °F 94% 30.06 in 10.0 mi Calm Calm - N/A   Clear
3:15 AM 39.6 °F - 37.6 °F 93% 30.06 in 10.0 mi Calm Calm - N/A   Clear
3:35 AM 39.2 °F 37.0 °F 37.4 °F 93% 30.06 in 10.0 mi ESE 3.5 mph - N/A   Clear
4:15 AM 38.1 °F - 36.7 °F 95% 30.05 in 10.0 mi Calm Calm - N/A   Clear
4:35 AM 40.1 °F - 36.5 °F 87% 30.05 in 10.0 mi Calm Calm - N/A   Clear
4:55 AM 38.7 °F - 36.9 °F 93% 30.05 in 10.0 mi Calm Calm - N/A   Clear
5:15 AM 38.3 °F - 36.5 °F 93% 30.05 in 10.0 mi Calm Calm - N/A   Clear
5:35 AM 37.9 °F - 36.5 °F 95% 30.05 in 10.0 mi Calm Calm - N/A   Clear
5:55 AM 35.8 °F - 35.1 °F 97% 30.05 in 10.0 mi Calm Calm - N/A   Clear
6:15 AM 37.4 °F - 36.7 °F 97% 30.05 in 10.0 mi Calm Calm - N/A   Clear
6:35 AM 36.7 °F - 35.6 °F 96% 30.05 in 10.0 mi Calm Calm - N/A   Clear
6:55 AM 36.5 °F - 35.2 °F 95% 30.05 in 10.0 mi Calm Calm - N/A   Clear
7:15 AM 36.3 °F - 35.6 °F 97% 30.05 in 10.0 mi Calm Calm - N/A   Clear
7:35 AM 36.3 °F - 35.1 °F 95% 30.05 in 10.0 mi Calm Calm - N/A   Clear
7:55 AM 36.5 °F 33.9 °F 35.4 °F 96% 30.06 in 10.0 mi South 3.5 mph - N/A   Clear
8:15 AM 36.5 °F - 35.8 °F 97% 30.06 in 10.0 mi Calm Calm - N/A   Clear
8:35 AM 37.8 °F - 36.1 °F 94% 30.07 in 10.0 mi Calm Calm - N/A   Clear
8:55 AM 38.5 °F - 37.6 °F 97% 30.07 in 10.0 mi Calm Calm - N/A   Clear
9:15 AM 41.4 °F - 37.6 °F 86% 30.08 in 10.0 mi Calm Calm - N/A   Clear
9:35 AM 40.8 °F - 39.0 °F 93% 30.09 in 10.0 mi Calm Calm - N/A   Clear
9:55 AM 43.3 °F - 41.2 °F 92% 30.09 in 10.0 mi Calm Calm - N/A   Clear
10:15 AM 48.0 °F - 41.2 °F 77% 30.09 in 10.0 mi SE 3.5 mph - N/A   Clear
10:35 AM 47.1 °F - 41.9 °F 82% 30.10 in 10.0 mi Calm Calm - N/A   Clear
10:55 AM 50.4 °F - 41.5 °F 72% 30.10 in 10.0 mi SSE 4.6 mph - N/A   Clear
11:15 AM 51.3 °F - 39.4 °F 64% 30.10 in 10.0 mi SSE 3.5 mph - N/A   Clear
11:35 AM 52.0 °F - 40.1 °F 64% 30.10 in 10.0 mi SSE 4.6 mph - N/A   Clear
11:55 AM 51.3 °F - 38.7 °F 62% 30.09 in 10.0 mi SSE 4.6 mph - N/A   Clear
12:55 PM 53.8 °F - 40.8 °F 62% 30.09 in 10.0 mi ESE 6.9 mph - N/A   Clear
1:15 PM 53.1 °F - 40.3 °F 62% 30.08 in 10.0 mi SE 6.9 mph - N/A   Clear
1:35 PM 53.4 °F - 39.4 °F 59% 30.05 in 10.0 mi Calm Calm - N/A   Clear
1:55 PM 53.2 °F - 39.4 °F 59% 30.05 in 10.0 mi SE 3.5 mph - N/A   Clear
2:15 PM 54.5 °F - 39.6 °F 57% 30.04 in 10.0 mi SE 5.8 mph - N/A   Scattered Clouds
2:35 PM 52.9 °F - 39.9 °F 61% 30.03 in 10.0 mi SE 4.6 mph - N/A   Clear
2:55 PM 53.8 °F - 40.3 °F 60% 30.03 in 10.0 mi SE 5.8 mph - N/A   Clear
3:15 PM 51.6 °F - 39.0 °F 62% 30.03 in 10.0 mi SE 6.9 mph - N/A   Clear
3:35 PM 51.6 °F - 39.7 °F 64% 30.03 in 10.0 mi SE 5.8 mph - N/A   Mostly Cloudy
3:55 PM 51.3 °F - 39.9 °F 65% 30.03 in 10.0 mi SE 4.6 mph - N/A   Overcast
4:15 PM 50.0 °F - 40.6 °F 70% 30.02 in 10.0 mi Calm Calm - N/A   Light Drizzle
4:55 PM 47.5 °F - 43.9 °F 87% 30.02 in 10.0 mi SSE 4.6 mph - N/A Rain Light Rain
5:15 PM 47.3 °F - 44.2 °F 89% 30.02 in 10.0 mi Calm Calm - N/A Rain Light Rain
5:35 PM 47.7 °F - 44.1 °F 87% 30.00 in 10.0 mi Calm Calm - N/A   Overcast
6:15 PM 47.3 °F - 43.2 °F 86% 30.00 in 10.0 mi Calm Calm - N/A   Overcast
6:35 PM 46.6 °F - 43.3 °F 88% 30.00 in 10.0 mi Calm Calm - N/A Rain Rain
6:55 PM 46.0 °F - 43.3 °F 90% 30.00 in 10.0 mi Calm Calm - N/A Rain Light Rain
7:15 PM 45.9 °F - 43.2 °F 90% 29.99 in 10.0 mi Calm Calm - N/A   Drizzle
7:35 PM 45.9 °F - 43.9 °F 93% 30.00 in 10.0 mi Calm Calm - N/A   Drizzle
7:55 PM 45.7 °F - 44.8 °F 97% 30.01 in 7.0 mi Calm Calm - 0.01 in Rain Rain
8:15 PM 45.5 °F - 45.1 °F 99% 30.01 in 3.0 mi Calm Calm - 0.01 in Rain Rain
8:35 PM 44.8 °F - 44.6 °F 99% 30.00 in 4.0 mi Calm Calm - 0.03 in Rain Rain
8:55 PM 44.6 °F - 43.7 °F 97% 30.01 in 3.0 mi Calm Calm - 0.06 in Rain Rain
9:15 PM 44.2 °F - 43.9 °F 99% 30.00 in 2.5 mi Calm Calm - 0.05 in Rain Rain
9:35 PM 43.9 °F - 43.2 °F 97% 30.00 in 5.0 mi Calm Calm - 0.08 in Rain Rain
9:55 PM 44.4 °F - 43.3 °F 96% 29.99 in 10.0 mi Calm Calm - 0.10 in Rain Rain
10:15 PM 43.9 °F - 43.7 °F 99% 29.98 in 2.0 mi Calm Calm - 0.02 in Rain Heavy Rain
10:35 PM 43.5 °F - 43.3 °F 99% 29.97 in 7.0 mi Calm Calm - 0.04 in Rain Light Rain
10:55 PM 43.9 °F - 43.3 °F 98% 29.97 in 5.0 mi Calm Calm - 0.06 in Rain Rain
11:15 PM 43.7 °F - 43.5 °F 99% 29.97 in 1.8 mi Calm Calm - 0.09 in Rain Light Rain
11:35 PM 43.7 °F - 43.7 °F 100% 29.96 in 2.0 mi Calm Calm - 0.17 in Rain Light Rain
11:55 PM 43.9 °F 42.3 °F 43.9 °F 100% 29.95 in 3.0 mi North 3.5 mph - 0.25 in Rain Rain